Location: Seattle
(47.6064°N, 122.3308°W)
Time: 05:41:27
(UTC-07:00)

Tiros 1 - Pass Details

Date: 05 August 2021
Orbit: 630 x 663 km, 48.4° (Epoch: 25 September)

Event Time Altitude Azimuth Distance (km) Brightness Sun altitude
Rises 22:35:46 0° 286° (WNW) 2,977 11.5 -16.5°
Reaches altitude 10° 22:38:11 10° 281° (W) 2,059 10.5 -16.8°
Maximum altitude 22:42:43 46° 208° (SSW) 873 7.6 -17.3°
Enters shadow 22:44:18 33° 160° (SSE) 1,087 7.8 -17.4°
